Simultaneous Nadir Overpasses (SNOs) Predictions

Prediction of SNOs between AQUA and METOP-C Satellite Orbit:

Table of predicted SNOs for the next 14.0 days since TLE Epoch: 12/3/2022
Index Date (AQUA) Time (AQUA) Lat,Lon (AQUA) SZA (AQUA ) Date (METOP-C) Time (METOP-C) Lat,Lon (METOP-C) SZA (METOP-C ) Distance(km) Time Diff (sec)
1 12/03/2022 06:54:20 -74.05,-108.33 83.93 12/03/2022 06:53:06 -73.99,-108.59 83.99 10.75 74
2 12/03/2022 07:43:48 74.12, 59.14 96.16 12/03/2022 07:43:43 74.14, 59.12 96.18 2.13 5
3 12/03/2022 08:33:15 -74.23,-133.46 83.73 12/03/2022 08:34:23 -74.21,-133.37 83.75 3.50 68
4 12/06/2022 01:38:02 73.83, 151.26 96.21 12/06/2022 01:36:52 73.78, 150.00 96.19 39.41 70
5 12/06/2022 02:27:33 -74.14, -41.80 83.47 12/06/2022 02:27:26 -74.15, -41.79 83.46 1.20 7
6 12/06/2022 03:17:01 74.21, 125.66 96.62 12/06/2022 03:18:05 74.21, 125.70 96.61 1.42 64
7 12/08/2022 20:21:46 -73.81, 50.37 83.49 12/08/2022 20:20:36 -73.73, 48.95 83.55 45.29 70
8 12/08/2022 21:11:19 74.15,-142.76 96.86 12/08/2022 21:11:08 74.14,-142.72 96.85 1.75 11
9 12/08/2022 22:00:45 -74.20, 24.78 83.09 12/08/2022 22:01:48 -74.20, 24.76 83.09 0.59 63
10 12/11/2022 15:05:27 73.65, -50.19 96.60 12/11/2022 15:04:19 73.62, -52.22 96.61 63.83 68
11 12/11/2022 15:55:01 -74.11, 116.43 82.93 12/11/2022 15:54:50 -74.13, 116.32 82.91 3.75 11
12 12/11/2022 16:44:29 74.20, -76.14 97.17 12/11/2022 16:45:29 74.20, -76.17 97.16 1.15 60
13 12/14/2022 09:49:10 -73.64,-151.06 83.23 12/14/2022 09:48:02 -73.60,-153.20 83.22 67.17 68
14 12/14/2022 10:38:46 74.14, 15.44 97.30 12/14/2022 10:38:32 74.12, 15.38 97.28 3.16 14
15 12/14/2022 11:28:13 -74.23,-177.12 82.61 12/14/2022 11:29:11 -74.22,-177.03 82.62 2.84 58



Historial Predications of SNOs between AQUA and METOP-C
